Location: Arrodets-la-Barthe
(43.0306°N, 0.2829°E)
Time: 02:36:22
(UTC+00:00)

Cosmos 2344 - Pass Details

Date: 07 June 2022
Orbit: 1228 x 3015 km, 63.3° (Epoch: 03 July)

Event Time Altitude Azimuth Distance (km) Brightness Sun altitude
Rises 03:37:29 0° 321° (NW) 4,579 6.5 -7.1°
Reaches altitude 10° 03:40:06 10° 319° (NW) 3,744 6.0 -6.7°
Maximum altitude 03:49:25 67° 240° (WSW) 2,055 4.5 -5.4°
Drops below altitude 10° 04:02:30 10° 161° (SSE) 5,122 6.6 -3.5°
Sets 04:06:45 0° 159° (SSE) 6,351 7.1 -2.9°
